Regional Weather Roundup
Issued by NWS Charleston, SC

Current Version | Previous Version | Text Only | Print | Product List | Glossary Off
Versions: 1 2 3 4 5 6 7 8 9 10 11 12 13 14 15 16 17 18 19 20 21 22 23 24 25 26 27 28 29 30 31 32 33 34 35 36 37 38 39 40 41 42 43 44 45 46 47 48 49 50
000 ASUS42 KCHS 250527 RWRCHS REGIONAL WEATHER ROUNDUP NATIONAL WEATHER SERVICE CHARLESTON SC 100 AM EDT THU MAY 25 2017 NOTE: "FAIR" INDICATES FEW OR NO CLOUDS BELOW 12,000 FEET WITH NO SIGNIFICANT WEATHER AND/OR OBSTRUCTIONS TO VISIBILITY. NOT ALL STATIONS ARE QUALITY CONTROLLED. USE DATA WITH CAUTION... ESPECIALLY DEWPOINT OBSERVATIONS. SCZ027-030-031-034>040-042>050-250600- ...SOUTHEAST SOUTH CAROLINA... CITY SKY/WX TMP DP RH WIND PRES REMARKS N CHARLESTON CLOUDY 72 64 76 SW12 29.57S WATERFRONT PRK N/A 74 68 81 SW9 29.57R JOHNS ISLAND FAIR 75 70 83 SW12G17 29.57F PINOPOLIS N/A 70 68 94 S5 29.48S MONCKS CORNER FAIR 68 64 88 SW9 29.57S SUMMERVILLE FAIR 68 66 94 S6 29.58S BEAUFORT MCAS CLOUDY 71 68 90 SW10 29.60R BEAUFORT ARPT MOCLDY 72 68 88 SW15G23 29.60R HILTON HEAD IS MOCLDY 73 68 83 S18G26 29.61R WALTERBORO CLOUDY 68 64 88 SW13G18 29.60R ALLENDALE MOCLDY 66 64 94 SW5 29.57S ...SOUTHERN MIDLANDS AND PEE DEE... CITY SKY/WX TMP DP RH WIND PRES REMARKS GEORGETOWN FAIR 70 70 100 SW13G20 29.57S KINGSTREE FAIR N/A N/A N/A S3 29.56S ORANGEBURG CLOUDY 66 64 93 W3 29.57F BARNWELL LGT RAIN 66 63 88 CALM 29.57S AIKEN MOCLDY 59 57 94 S6 29.60R MANNING CLOUDY 70 70 100 S24 29.56S COLUMBIA LGT RAIN 65 62 90 VRB3 29.54F SUMTER LGT RAIN 66 64 94 SW15G21 29.53S FLORENCE MOCLDY 70 69 97 S9 29.54R MYRTLE BEACH NOT AVBL N MYRTLE BEACH LGT RAIN 71 69 93 SW9 29.55S FOG $$ GAZ063-065-086>088-099>101-113>116-118-119-134>141-150-250600- ...SOUTHEAST GEORGIA... CITY SKY/WX TMP DP RH WIND PRES REMARKS SAVANNAH ARPT PTCLDY 71 65 81 SW10 29.61F HUNTER AAF CLOUDY 69 69 100 SW10G18 29.59R FORT STEWART LGT RAIN 70 66 88 SW12 29.60S STATESBORO CLOUDY 65 65 100 S5 29.61R SYLVANIA CLOUDY 65 65 99 SW3 29.60F CLAXTON FAIR N/A N/A N/A CALM 29.62R ...CSRA...CENTRAL AND FAR SOUTHEAST GEORGIA... CITY SKY/WX TMP DP RH WIND PRES REMARKS THOMSON MOCLDY 62 61 94 NW5 29.62R AUGUSTA-BUSH CLOUDY 63 61 93 CALM 29.56R AUGUSTA-DANIEL CLOUDY 63 58 83 SW3 29.57S SWAINSBORO CLOUDY 64 64 100 SW6 29.62R VIDALIA NOT AVBL EASTMAN FAIR 65 53 64 W5 29.67R HAZLEHURST FAIR 65 65 100 SW5 29.64R ALMA CLOUDY 69 65 86 SW5 29.65R WAYCROSS PTCLDY 71 71 100 W9 29.66R JESUP MOCLDY 70 64 83 W6 29.65R BAXLEY CLOUDY 66 66 100 CALM 29.64S BRUNSWICK NOT AVBL SAINT SIMONS MOCLDY 73 69 87 SW17G25 29.65R $$ SCZ027-028-034-036>038-045-046-048>050-GAZ119-141-250600- ...LAKE AND SUPPLEMENTAL COASTAL OBSERVATIONS... STATION/POSITION TIME TEMP WIND PRES WAVE SWELL AIR SEA DIR/SP/G HT/PER HT/PER/DIR (UTC) (F) (DEG/KT/KT) (MB) (FT/S) (FT/S/D) WINYAH BAY 0430 73 200/ 17 1001.0S LAKE MURRAY 0450 68 220/ 5/ 16 999.7R ACE BASIN NERRS 0445 72 180/ 1 1002.0S FORT PULASKI 0500 72 240/ 11/ 17 1003.0 SAPELO ISLAND 0500 73 220/ 18 1004.0 $$ ANZ835-935-AMZ111-154-330-350-352-354-370-450-454-472-250600- ...C-MAN AND BUOY OBSERVATIONS... STATION/POSITION TIME TEMP WIND PRES WAVE SWELL AIR SEA DIR/SP/G HT/PER HT/PER/DIR (UTC) (F) (DEG/KT/KT) (MB) (FT/S) (FT/S/D) BUOY 41004 0510 76 76 210/ 27/ 35 1002.0 BUOY 41008 0450 76 78 210/ 25/ 29 1002.5F 6/ 6 FOLLY BEACH CMAN 0500 76 220/ 22/ 26 1002.2F CAPERS NEARSHORE 0508 80 77 230/ 21/ 31 1001.0F FRIPP NEARSHORE 0508 76 78 230/ 23/ 29 1001.7F STATION/POSITION TIME TEMP WIND PRES WAVE SWELL AIR SEA DIR/SP/G HT/PER HT/PER/DIR (UTC) (F) (DEG/KT/KT) (MB) (FT/S) (FT/S/D) 5E ST. MARYS GA 0500 78 N/A 4/ 6 FRYING PAN BUOY 0510 73 76 170/ 21/ 27 1001.5 BUOY 41025 0450 74 74 170/ 17/ 21 1004.5F 5/ 6 CAPE LOOKOUT NC 0500 74 160/ 19/ 24 1001.9F BUOY 41002 0450 78 77 180/ 25/ 31 1008.9F 10/ 7 BUOY 41010 0510 79 230/ 21/ 25 1008.8 ST AUGUSTINE FL 0500 72 76 220/ 6/ 9 1006.8R $$

USA.gov is the U.S. government's official web portal to all federal, state and local government web resources and services.